timestamp,surface_pressure_avg,surface_temp_avg,battery_voltage,lat,long
2024-05-05 00:09:01+00:00,234.3648,1.88,12.25,47.84626,-54.09684
2024-05-05 00:19:00+00:00,227.0348,1.87,12.25,47.84626,-54.09684
2024-05-05 00:29:00+00:00,216.9698,1.88,12.25,47.84626,-54.09684
2024-05-05 00:39:00+00:00,211.0281,1.89,12.25,47.84626,-54.09684
2024-05-05 00:49:00+00:00,209.5747,1.88,12.25,47.84626,-54.09684
2024-05-05 00:59:00+00:00,203.6481,1.89,12.25,47.84626,-54.09684
2024-05-05 01:09:00+00:00,194.0481,1.9,12.25,47.84626,-54.09684
2024-05-05 01:19:01+00:00,190.8315,2.0,12.25,47.84626,-54.09684
2024-05-05 01:29:01+00:00,191.5616,2.13,12.25,47.84626,-54.09684
2024-05-05 01:39:01+00:00,188.7998,2.27,12.25,47.84626,-54.09684
2024-05-05 01:49:01+00:00,185.4247,2.3,12.25,47.84626,-54.09684
2024-05-05 01:59:01+00:00,183.6781,2.2,12.25,47.84626,-54.09684
2024-05-05 02:09:01+00:00,178.5248,2.2,12.25,47.84626,-54.09684
2024-05-05 02:19:01+00:00,174.6581,2.19,12.17,47.84626,-54.09684
2024-05-05 02:29:01+00:00,174.5798,2.15,12.17,47.84626,-54.09684
2024-05-05 02:39:01+00:00,171.7432,2.3,12.17,47.84626,-54.09684
2024-05-05 02:49:01+00:00,169.0415,2.3,12.17,47.84626,-54.09684
2024-05-05 02:59:01+00:00,170.6648,2.34,12.17,47.84626,-54.09684
2024-05-05 03:09:01+00:00,169.6265,2.31,12.17,47.84626,-54.09684
2024-05-05 03:19:00+00:00,165.7165,2.3,12.17,47.84626,-54.09684
2024-05-05 03:29:00+00:00,166.3982,2.3,12.17,47.84626,-54.09684
2024-05-05 03:39:00+00:00,170.3832,2.3,12.17,47.84626,-54.09684
2024-05-05 03:49:00+00:00,170.6964,2.3,12.17,47.84626,-54.09684
2024-05-05 03:59:00+00:00,172.4865,2.3,12.17,47.84626,-54.09684
2024-05-05 04:09:00+00:00,179.6064,2.3,12.17,47.84626,-54.09684
2024-05-05 04:19:00+00:00,182.8915,2.3,12.17,47.84626,-54.09684
2024-05-05 04:29:00+00:00,181.9465,2.3,12.17,47.84626,-54.09684
2024-05-05 04:39:00+00:00,185.0298,2.2,12.17,47.84626,-54.09684
2024-05-05 04:49:00+00:00,192.8631,2.0,12.17,47.84626,-54.09684
2024-05-05 04:59:00+00:00,196.6364,2.0,12.17,47.84626,-54.09684
2024-05-05 05:09:00+00:00,196.1281,2.0,12.17,47.84626,-54.09684
2024-05-05 05:19:00+00:00,200.9315,1.9,12.17,47.84626,-54.09684
2024-05-05 05:29:00+00:00,208.6348,1.82,12.17,47.84626,-54.09684
2024-05-05 05:39:00+00:00,211.1797,1.8,12.17,47.84626,-54.09684
2024-05-05 05:49:00+00:00,213.9448,1.9,12.17,47.84626,-54.09684
2024-05-05 05:59:00+00:00,221.9915,2.0,12.17,47.84626,-54.09684
2024-05-05 06:09:00+00:00,230.9264,2.0,12.17,47.84626,-54.09684
2024-05-05 06:19:00+00:00,237.6931,1.95,12.17,47.84626,-54.09684
2024-05-05 06:29:00+00:00,247.9581,2.06,12.17,47.84626,-54.09684
2024-05-05 06:39:00+00:00,259.3997,2.1,12.17,47.84626,-54.09684
2024-05-05 06:49:00+00:00,266.5931,2.1,12.17,47.84626,-54.09684
2024-05-05 06:59:00+00:00,273.2481,2.1,12.17,47.84626,-54.09684
2024-05-05 07:09:00+00:00,285.4214,2.0,12.17,47.84626,-54.09684
2024-05-05 07:19:00+00:00,292.5214,1.9,12.17,47.84626,-54.09684
2024-05-05 07:29:00+00:00,293.4098,1.9,12.17,47.84626,-54.09684
2024-05-05 07:39:00+00:00,299.0064,1.9,12.17,47.84626,-54.09684
2024-05-05 07:49:00+00:00,309.1613,1.9,12.17,47.84626,-54.09684
2024-05-05 07:59:00+00:00,310.203,1.9,12.17,47.84626,-54.09684
2024-05-05 08:09:00+00:00,312.4164,1.9,12.17,47.84626,-54.09684
2024-05-05 08:19:00+00:00,323.0197,1.9,12.17,47.84626,-54.09684
2024-05-05 08:29:00+00:00,329.4647,1.9,12.17,47.84626,-54.09684
2024-05-05 08:39:00+00:00,323.83299999999997,1.9,12.17,47.84626,-54.09684
2024-05-05 08:49:00+00:00,324.9897,1.9,12.17,47.84626,-54.09684
2024-05-05 08:59:00+00:00,329.5363,1.89,12.17,47.84626,-54.09684
2024-05-05 09:09:00+00:00,328.1880000000001,1.8,12.17,47.84626,-54.09684
2024-05-05 09:19:00+00:00,325.1762,1.8,12.17,47.84626,-54.09684
2024-05-05 09:29:00+00:00,329.3079,1.76,12.17,47.84626,-54.09684
2024-05-05 09:39:00+00:00,330.798,1.75,12.17,47.84626,-54.09684
2024-05-05 09:49:00+00:00,324.2764,1.78,12.17,47.84626,-54.09684
2024-05-05 09:59:00+00:00,321.438,1.74,12.17,47.84626,-54.09684
2024-05-05 10:09:00+00:00,323.8029,1.7,12.17,47.84626,-54.09684
2024-05-05 10:19:00+00:00,319.3196,1.73,12.17,47.84626,-54.09684
2024-05-05 10:29:00+00:00,312.9996,1.8,12.17,47.84626,-54.09684
2024-05-05 10:39:00+00:00,313.4747,1.8,12.17,47.84626,-54.09684
2024-05-05 10:49:00+00:00,310.9981,1.8,12.17,47.84626,-54.09684
2024-05-05 10:59:00+00:00,299.1296,1.82,12.17,47.84626,-54.09684
2024-05-05 11:09:00+00:00,291.108,1.87,12.17,47.84626,-54.09684
2024-05-05 11:19:00+00:00,289.653,1.87,12.49,47.84626,-54.09684
2024-05-05 11:29:00+00:00,282.2413,1.89,12.49,47.84626,-54.09684
2024-05-05 11:39:00+00:00,271.5931,1.89,12.49,47.84626,-54.09684
2024-05-05 11:49:00+00:00,265.1447,1.9,12.49,47.84626,-54.09684
2024-05-05 11:59:00+00:00,259.0614,1.89,12.49,47.84626,-54.09684
2024-05-05 12:09:00+00:00,250.3931,1.81,12.49,47.84626,-54.09684
2024-05-05 12:19:00+00:00,244.6181,1.81,13.05,47.84626,-54.09684
2024-05-05 12:29:00+00:00,239.8314,1.85,13.05,47.84626,-54.09684
2024-05-05 12:39:00+00:00,232.2664,1.87,13.05,47.84626,-54.09684
2024-05-05 12:49:00+00:00,223.4581,1.85,13.05,47.84626,-54.09684
2024-05-05 12:59:00+00:00,217.0231,1.87,13.05,47.84626,-54.09684
2024-05-05 13:09:00+00:00,211.3398,1.88,13.05,47.84626,-54.09684
2024-05-05 13:19:00+00:00,206.9515,1.87,14.48,47.84626,-54.09684
2024-05-05 13:29:00+00:00,203.8115,1.86,14.48,47.84626,-54.09684
2024-05-05 13:39:00+00:00,197.8514,1.86,14.48,47.84626,-54.09684
2024-05-05 13:49:00+00:00,189.2931,1.88,14.48,47.84626,-54.09684
2024-05-05 13:59:00+00:00,184.4348,1.9,14.48,47.84626,-54.09684
2024-05-05 14:09:00+00:00,183.2731,1.9,14.48,47.84626,-54.09684
2024-05-05 14:19:00+00:00,178.5298,1.9,14.24,47.84626,-54.09684
2024-05-05 14:29:00+00:00,175.2198,1.9,14.24,47.84626,-54.09684
2024-05-05 14:39:00+00:00,173.2998,1.91,14.24,47.84626,-54.09684
2024-05-05 14:49:00+00:00,171.8232,1.95,14.24,47.84626,-54.09684
2024-05-05 14:59:00+00:00,169.6614,1.97,14.24,47.84626,-54.09684
2024-05-05 15:09:00+00:00,166.3198,1.99,14.24,47.84626,-54.09684
2024-05-05 15:19:00+00:00,169.0464,1.99,13.92,47.84626,-54.09684
2024-05-05 15:29:00+00:00,169.6915,2.0,13.92,47.84626,-54.09684
2024-05-05 15:39:00+00:00,166.4715,2.0,13.92,47.84626,-54.09684
2024-05-05 15:49:00+00:00,168.2632,2.03,13.92,47.84626,-54.09684
2024-05-05 15:59:00+00:00,170.1649,2.09,13.92,47.84626,-54.09684
2024-05-05 16:09:00+00:00,168.7815,2.1,13.92,47.84626,-54.09684
2024-05-05 16:19:00+00:00,169.3815,2.19,13.44,47.84626,-54.09684
2024-05-05 16:29:00+00:00,175.5298,2.2,13.44,47.84626,-54.09684
2024-05-05 16:39:00+00:00,181.3015,2.1,13.44,47.84626,-54.09684
2024-05-05 16:49:00+00:00,182.4281,1.8,13.44,47.84626,-54.09684
2024-05-05 16:59:00+00:00,187.2115,1.6,13.44,47.84626,-54.09684
2024-05-05 17:09:00+00:00,195.3681,1.46,13.44,47.84626,-54.09684
2024-05-05 17:19:00+00:00,198.1081,1.4,12.97,47.84626,-54.09684
2024-05-05 17:29:00+00:00,201.5631,1.4,12.97,47.84626,-54.09684
2024-05-05 17:39:00+00:00,207.7331,1.4,12.97,47.84626,-54.09684
2024-05-05 17:49:00+00:00,212.8997,1.4,12.97,47.84626,-54.09684
2024-05-05 17:59:00+00:00,219.2248,1.4,12.97,47.84626,-54.09684
2024-05-05 18:09:00+00:00,225.8448,1.4,12.97,47.84626,-54.09684
2024-05-05 18:19:00+00:00,232.2531,1.4,12.73,47.84626,-54.09684
2024-05-05 18:29:00+00:00,239.4481,1.4,12.73,47.84626,-54.09684
2024-05-05 18:39:00+00:00,245.9847,1.39,12.73,47.84626,-54.09684
2024-05-05 18:49:00+00:00,252.7681,1.39,12.73,47.84626,-54.09684
2024-05-05 18:59:00+00:00,256.7548,1.39,12.73,47.84626,-54.09684
2024-05-05 19:09:00+00:00,266.1731,1.38,12.73,47.84626,-54.09684
2024-05-05 19:19:00+00:00,273.0064,1.38,12.65,47.84626,-54.09684
2024-05-05 19:29:00+00:00,277.5013,1.39,12.65,47.84626,-54.09684
2024-05-05 19:39:00+00:00,284.4147,1.4,12.65,47.84626,-54.09684
2024-05-05 19:49:00+00:00,297.5764,1.4,12.65,47.84626,-54.09684
2024-05-05 19:59:00+00:00,307.2114,1.4,12.65,47.84626,-54.09684
2024-05-05 20:09:00+00:00,310.2964,1.4,12.65,47.84626,-54.09684
2024-05-05 20:19:00+00:00,311.1062,1.39,12.57,47.84626,-54.09684
2024-05-05 20:29:00+00:00,318.2346,1.38,12.57,47.84626,-54.09684
2024-05-05 20:39:00+00:00,323.2913,1.39,12.57,47.84626,-54.09684
2024-05-05 20:49:00+00:00,326.2296,1.4,12.57,47.84626,-54.09684
2024-05-05 20:59:00+00:00,328.2447,1.4,12.57,47.84626,-54.09684
2024-05-05 21:09:00+00:00,334.92800000000005,1.4,12.57,47.84626,-54.09684
2024-05-05 21:19:00+00:00,337.6711,1.4,12.57,47.84626,-54.09684
2024-05-05 21:29:00+00:00,334.9797,1.4,12.57,47.84626,-54.09684
2024-05-05 21:39:00+00:00,335.7814,1.4,12.57,47.84626,-54.09684
2024-05-05 21:49:00+00:00,338.3615,1.4,12.57,47.84626,-54.09684
2024-05-05 21:59:00+00:00,337.983,1.4,12.57,47.84626,-54.09684
2024-05-05 22:09:00+00:00,333.3163,1.4,12.57,47.84626,-54.09684
2024-05-05 22:19:00+00:00,334.4298,1.4,12.41,47.84626,-54.09684
2024-05-05 22:29:00+00:00,333.9197,1.4,12.41,47.84626,-54.09684
2024-05-05 22:39:00+00:00,328.6696,1.4,12.41,47.84626,-54.09684
2024-05-05 22:49:00+00:00,324.2329,1.39,12.41,47.84626,-54.09684
2024-05-05 22:59:00+00:00,324.938,1.31,12.41,47.84626,-54.09684
2024-05-05 23:09:00+00:00,322.3713,1.32,12.41,47.84626,-54.09684
2024-05-05 23:19:00+00:00,314.693,1.34,12.41,47.84626,-54.09684
2024-05-05 23:29:00+00:00,307.7847,1.3,12.41,47.84626,-54.09684
2024-05-05 23:39:00+00:00,304.2413,1.3,12.41,47.84626,-54.09684
2024-05-05 23:49:00+00:00,299.0447,1.3,12.41,47.84626,-54.09684
2024-05-05 23:59:00+00:00,292.5264,1.3,12.41,47.84626,-54.09684
